User: anonymous   Login
Location: Vallejo Observatory
(38.1221°N, 122.2109°W)
Time: 14:43:31
(UTC-08:00)
Language:

MOS 1 Rocket - Orbit

View from above orbital plane
View from above orbital plane
View from above satellite
View from above satellite

Ground track
Ground track

The orbit data is extracted from the following two-line orbital elements,

1 17528U 87018B   14353.20098206  .00001185  00000-0  27260-3 0  5520
2 17528 097.4410 041.4154 0152000 273.5260 126.3061 14.50211618467816
Epoch (UTC): 19 December 2014 04:49:24
Eccentricity: 0.0152000
inclination: 97.4410°
perigee height: 617 km
apogee height: 833 km
right ascension of ascending node: 41.4154°
argument of perigee: 273.5260°
revolutions per day: 14.50211618
mean anomaly at epoch: 126.3061°
orbit number at epoch: 46781

The dashed part of the orbit path shows where the satellite is in the earth's shadow,  

DLR